Starlink 30109

operational
NORAD ID: 56298 Int'l Des: 2023-056 Owner: SPXS Country: US Constellation: starlink
LEOCIRCULAR

Über Starlink 30109

Beschreibung wird geladen...

Live-Position

3D-Globus wird geladen...

Nächste Überflüge

Höhenverlauf

Altitude vs Time

uPlot chart will show altitude changes over time

Zweizeiliger Elementsatz

1 56298U 23056N 25304.67105170 .00000495 00000-0 51679-4 0 9997
2 56298 42.9986 191.4727 0000659 312.3818 47.6968 15.02537951140673
Epoch: 31. Okt. 2025 • Age: 17 hours

Aktueller Status

Höhe 568.7 km
Geschwindigkeit 7.58 km/s
Subsatellitenpunkt -34.31°S, 123.12°W
Startdatum 19. Apr. 2023
Alter 2.5 years
Typ internet

Technische Details

Klassifizierung Payload
Masse 730.00 kg
Trockenmasse 700.00 kg
Gesamtmasse 730.00 kg
Länge 0.30 m
Durchmesser 4.10 m
Spannweite 29.00 m
Form Box + pan
Hersteller SPXS
Bus-Typ Starlink V2M
Phasenstatus In Orbit
Besitzer/Staat SPXS/US

Große Konstellationen

Loading constellations...